Location: Baia Mare
(47.6567°N, 23.5850°E)
Time: 13:06:48
(UTC+03:00)

ISS - Pass Details

Date: 13 July 2018
Orbit: 402 x 408 km, 51.6° (Epoch: 17 July)

Event Time Altitude Azimuth Distance (km) Brightness Sun altitude
Exits shadow 04:30:50 - 279° (W) 2,304 -0.3 -9.7°
Reaches altitude 10° 04:32:56 10° 288° (WNW) 1,470 -1.2 -9.4°
Maximum altitude 04:36:03 39° 359° (N) 629 -2.4 -9.1°
Drops below altitude 10° 04:39:11 10° 70° (ENE) 1,473 0.1 -8.7°
Sets 04:41:22 0° 79° (ENE) 2,334 1.0 -8.5°
